Find Starlink 32809

NORAD ID: 62849 Int'l Des: 2025-019 Owner: SPXS Country: US Constellation: starlink operational
LEOCIRCULAR

リアルタイム位置

3D地球を読み込み中...

Starlink 32809について

説明を読み込み中...

次回通過

Passes for default location (London). Set your location on the main map for personalized predictions.

高度履歴

Loading altitude history...

軌道要素

1 62849U 25019W 26121.12429575 .00022848 00000-0 83680-3 0 9995
2 62849 42.9978 152.5520 0001952 287.2987 72.7651 15.27596249 70274
Epoch: May 1, 2026 • Age: 12 hours

現在のステータス

高度 483.2 km
速度 7.63 km/s
衛星直下点 18.83°N, 130.5°W
打ち上げ日 Jan 27, 2025
運用期間 1.2 years
タイプ internet

技術仕様

分類 Payload
質量 730.00 kg
乾燥質量 700.00 kg
総質量 730.00 kg
長さ 0.30 m
直径 4.10 m
スパン 29.00 m
形状 Box + pan
製造者 SPXS
バスタイプ Starlink V2M
フェーズステータス In Orbit
所有者/国 SPXS/US

Most Searched